Location: Beaver Brook Station
(42.3793°N, 71.2203°W)
Time: 00:44:42
(UTC+00:00)

Meteor 2-8 Rocket - Pass Details

Date: 29 October 2020
Orbit: 937 x 957 km, 82.5° (Epoch: 25 November)

Event Time Altitude Azimuth Distance (km) Brightness Sun altitude
Rises 22:22:43 0° 176° (S) 3,599 7.6 -8.2°
Reaches altitude 10° 22:25:12 10° 173° (S) 2,661 6.9 -8.7°
Maximum altitude 22:31:12 64° 94° (E) 1,051 4.4 -9.8°
Drops below altitude 10° 22:37:16 10° 14° (NNE) 2,692 6.6 -10.9°
Sets 22:39:48 0° 12° (NNE) 3,643 7.3 -11.3°
